When you browse on this site, cookies collect data to enhance your experience and personalize the content and advertising you see.
Visit our Privacy Policy to learn more. By continuing to use the site, you agree to this use of cookies and data.
  • In France
  • List of Countries
  • For 7 days
  • Water Temperature
  • Satellite Maps
  • Weather Map
  • Weather Widgets
  • user-avatar
    Login

    Hourly Weather Luanda

    Today, 23 January, Wednesday

    Time Temperature Precipitation Wind Pressure Humidity
    00:00 +28°C° 0.7 mm 4 mps 754 mmHg 81%
    01:00 +28°C° 0.7 mm 4 mps 755 mmHg 83%
    02:00 +28°C° 0.5 mm 4 mps 754 mmHg 84%
    03:00 +28°C° 0.5 mm 3 mps 754 mmHg 84%
    04:00 +28°C° 0.5 mm 3 mps 754 mmHg 85%
    05:00 +27°C° 1.2 mm 3 mps 754 mmHg 86%
    06:00 +27°C° 1.2 mm 3 mps 754 mmHg 87%
    07:00 +27°C° 1.2 mm 4 mps 755 mmHg 87%
    08:00 +27°C° 1.1 mm 3 mps 755 mmHg 86%
    09:00 +27°C° 1.1 mm 3 mps 755 mmHg 84%
    10:00 +27°C° 1.1 mm 3 mps 755 mmHg 82%
    11:00 +29°C° 0.6 mm 3 mps 755 mmHg 75%
    12:00 +30°C° 0.6 mm 2 mps 755 mmHg 68%
    13:00 +31°C° 0.6 mm 2 mps 754 mmHg 61%
    14:00 +31°C° 0.1 mm 2 mps 754 mmHg 61%
    15:00 +31°C° 0.1 mm 3 mps 753 mmHg 62%
    16:00 +32°C° 0.1 mm 4 mps 753 mmHg 62%
    17:00 +30°C° 0.6 mm 3 mps 753 mmHg 68%
    18:00 +29°C° 0.6 mm 3 mps 753 mmHg 74%
    19:00 +28°C° 0.6 mm 2 mps 753 mmHg 80%
    20:00 +28°C° 0 mm 2 mps 753 mmHg 81%
    21:00 +28°C° 0 mm 1 mps 754 mmHg 81%
    22:00 +28°C° 0 mm 1 mps 754 mmHg 82%
    23:00 +28°C° 0 mm 1 mps 754 mmHg 83%

    Tomorrow, 24 January, Thursday

    Time Temperature Precipitation Wind Pressure Humidity
    00:00 +28°C° 0 mm 1 mps 754 mmHg 83%
    01:00 +26°C° 0 mm 0 mps 754 mmHg 84%
    02:00 +27°C° 0.1 mm 1 mps 753 mmHg 84%
    03:00 +27°C° 0.1 mm 1 mps 753 mmHg 84%
    04:00 +27°C° 0.1 mm 1 mps 753 mmHg 85%
    05:00 +27°C° 0.2 mm 1 mps 753 mmHg 84%
    06:00 +28°C° 0.2 mm 1 mps 753 mmHg 83%
    07:00 +28°C° 0.2 mm 1 mps 753 mmHg 82%
    08:00 +29°C° 0.1 mm 1 mps 754 mmHg 75%
    09:00 +30°C° 0.1 mm 1 mps 754 mmHg 69%
    10:00 +32°C° 0.1 mm 1 mps 754 mmHg 63%
    11:00 +32°C° 0 mm 1 mps 753 mmHg 60%
    12:00 +34°C° 0 mm 2 mps 753 mmHg 58%
    13:00 +34°C° 0 mm 3 mps 752 mmHg 56%
    14:00 +34°C° 0 mm 4 mps 751 mmHg 57%
    15:00 +34°C° 0 mm 4 mps 751 mmHg 57%
    16:00 +34°C° 0 mm 5 mps 750 mmHg 58%
    17:00 +33°C° 0 mm 5 mps 750 mmHg 63%
    18:00 +32°C° 0 mm 4 mps 751 mmHg 67%
    19:00 +29°C° 0 mm 4 mps 751 mmHg 71%
    20:00 +29°C° 0 mm 4 mps 752 mmHg 72%
    21:00 +29°C° 0 mm 3 mps 753 mmHg 74%
    22:00 +29°C° 0 mm 3 mps 753 mmHg 75%
    23:00 +29°C° 0 mm 2 mps 753 mmHg 76%

    Day after tomorrow, 25 January, Friday

    Time Temperature Precipitation Wind Pressure Humidity
    00:00 +28°C° 0 mm 2 mps 753 mmHg 77%
    01:00 +28°C° 0 mm 2 mps 753 mmHg 78%
    02:00 +28°C° 0 mm 2 mps 752 mmHg 79%
    03:00 +28°C° 0 mm 2 mps 752 mmHg 80%
    04:00 +28°C° 0 mm 2 mps 752 mmHg 81%
    05:00 +28°C° 0 mm 1 mps 752 mmHg 80%
    06:00 +28°C° 0 mm 1 mps 753 mmHg 79%
    07:00 +28°C° 0 mm 1 mps 753 mmHg 78%
    08:00 +29°C° 0 mm 1 mps 754 mmHg 73%
    09:00 +30°C° 0 mm 1 mps 754 mmHg 68%
    10:00 +29°C° 0 mm 0 mps 754 mmHg 63%
    11:00 +32°C° 0 mm 1 mps 754 mmHg 61%
    12:00 +33°C° 0 mm 3 mps 753 mmHg 59%
    13:00 +34°C° 0 mm 4 mps 752 mmHg 57%
    14:00 +34°C° 0 mm 4 mps 752 mmHg 57%
    15:00 +34°C° 0 mm 4 mps 751 mmHg 58%
    16:00 +34°C° 0 mm 5 mps 750 mmHg 58%
    17:00 +33°C° 0 mm 4 mps 751 mmHg 62%
    18:00 +30°C° 0 mm 3 mps 751 mmHg 66%
    19:00 +29°C° 0 mm 3 mps 752 mmHg 70%
    20:00 +29°C° 0 mm 3 mps 753 mmHg 72%
    21:00 +29°C° 0 mm 3 mps 754 mmHg 74%
    22:00 +29°C° 0 mm 3 mps 754 mmHg 75%
    23:00 +29°C° 0 mm 2 mps 754 mmHg 77%

    26 January, Saturday

    Time Temperature Precipitation Wind Pressure Humidity
    00:00 +28°C° 0 mm 2 mps 754 mmHg 78%
    01:00 +28°C° 0 mm 2 mps 753 mmHg 79%
    02:00 +28°C° 0 mm 2 mps 753 mmHg 80%
    03:00 +28°C° 0 mm 2 mps 753 mmHg 81%
    04:00 +27°C° 0 mm 2 mps 753 mmHg 83%
    05:00 +28°C° 0 mm 2 mps 753 mmHg 82%
    06:00 +28°C° 0 mm 2 mps 754 mmHg 82%
    07:00 +28°C° 0 mm 2 mps 754 mmHg 81%
    08:00 +29°C° 0 mm 1 mps 754 mmHg 75%
    09:00 +31°C° 0 mm 1 mps 755 mmHg 69%
    10:00 +30°C° 0 mm 0 mps 755 mmHg 62%
    11:00 +32°C° 0 mm 1 mps 754 mmHg 61%
    12:00 +34°C° 0 mm 2 mps 754 mmHg 59%
    13:00 +34°C° 0 mm 3 mps 753 mmHg 58%
    14:00 +34°C° 0 mm 4 mps 753 mmHg 58%
    15:00 +34°C° 0 mm 4 mps 752 mmHg 57%
    16:00 +34°C° 0 mm 5 mps 752 mmHg 57%
    17:00 +33°C° 0 mm 4 mps 752 mmHg 61%
    18:00 +32°C° 0 mm 4 mps 753 mmHg 65%
    19:00 +29°C° 0 mm 4 mps 753 mmHg 69%
    20:00 +29°C° 0 mm 4 mps 754 mmHg 70%
    21:00 +29°C° 0 mm 3 mps 754 mmHg 70%
    22:00 +29°C° 0 mm 3 mps 755 mmHg 71%
    23:00 +29°C° 0 mm 3 mps 755 mmHg 73%

    27 January, Sunday

    Time Temperature Precipitation Wind Pressure Humidity
    00:00 +28°C° 0 mm 4 mps 754 mmHg 75%
    01:00 +28°C° 0 mm 4 mps 754 mmHg 77%
    02:00 +28°C° 0 mm 3 mps 753 mmHg 79%
    03:00 +27°C° 0 mm 2 mps 753 mmHg 81%
    04:00 +27°C° 0 mm 2 mps 753 mmHg 83%
    05:00 +27°C° 0.1 mm 2 mps 753 mmHg 81%
    06:00 +28°C° 0.1 mm 2 mps 754 mmHg 80%
    07:00 +28°C° 0.1 mm 1 mps 754 mmHg 79%
    08:00 +29°C° 0 mm 1 mps 754 mmHg 74%
    09:00 +30°C° 0 mm 1 mps 755 mmHg 68%
    10:00 +29°C° 0 mm 0 mps 755 mmHg 62%
    11:00 +32°C° 0 mm 1 mps 754 mmHg 60%
    12:00 +32°C° 0 mm 2 mps 754 mmHg 57%
    13:00 +34°C° 0 mm 2 mps 753 mmHg 55%
    14:00 +34°C° 0 mm 3 mps 752 mmHg 55%
    15:00 +34°C° 0 mm 4 mps 752 mmHg 55%
    16:00 +34°C° 0 mm 4 mps 751 mmHg 55%
    17:00 +33°C° 0 mm 4 mps 751 mmHg 60%
    18:00 +30°C° 0 mm 4 mps 752 mmHg 65%
    19:00 +29°C° 0 mm 3 mps 752 mmHg 69%
    20:00 +29°C° 0 mm 3 mps 753 mmHg 71%
    21:00 +29°C° 0 mm 3 mps 753 mmHg 72%
    22:00 +28°C° 0 mm 3 mps 754 mmHg 74%
    23:00 +28°C° 0 mm 3 mps 754 mmHg 75%

    28 January, Monday

    Time Temperature Precipitation Wind Pressure Humidity
    00:00 +28°C° 0 mm 3 mps 753 mmHg 76%
    01:00 +28°C° 0 mm 2 mps 753 mmHg 77%
    02:00 +27°C° 0 mm 2 mps 753 mmHg 78%
    03:00 +27°C° 0 mm 2 mps 753 mmHg 80%
    04:00 +27°C° 0 mm 2 mps 753 mmHg 81%
    05:00 +27°C° 0 mm 2 mps 753 mmHg 81%
    06:00 +27°C° 0 mm 2 mps 753 mmHg 80%
    07:00 +27°C° 0 mm 2 mps 754 mmHg 79%
    08:00 +29°C° 0 mm 1 mps 754 mmHg 72%
    09:00 +31°C° 0 mm 1 mps 754 mmHg 64%
    10:00 +31°C° 0 mm 0 mps 755 mmHg 56%
    11:00 +33°C° 0 mm 1 mps 754 mmHg 53%
    12:00 +35°C° 0 mm 2 mps 753 mmHg 50%
    13:00 +36°C° 0 mm 3 mps 752 mmHg 47%
    14:00 +35°C° 0 mm 4 mps 751 mmHg 50%
    15:00 +35°C° 0 mm 5 mps 751 mmHg 52%
    16:00 +35°C° 0 mm 5 mps 750 mmHg 55%
    17:00 +33°C° 0 mm 5 mps 751 mmHg 59%
    18:00 +32°C° 0 mm 4 mps 751 mmHg 63%
    19:00 +30°C° 0 mm 4 mps 752 mmHg 68%
    20:00 +29°C° 0 mm 4 mps 752 mmHg 69%
    21:00 +29°C° 0 mm 4 mps 753 mmHg 71%
    22:00 +29°C° 0 mm 3 mps 753 mmHg 72%
    23:00 +29°C° 0 mm 3 mps 753 mmHg 74%
    Show more